Location: ?????????
(54.7630°N, 39.4991°E)
Time: 21:00:51
(UTC+00:00)

USA 234 - Pass Details

Date: 14 April 2026
Orbit: 1102 x 1106 km, 123.0° (Epoch: 4 January)

Event Time Altitude Azimuth Distance (km) Brightness Sun altitude
Rises 18:54:28 0° 71° (ENE) 3,926 6.0 -18.5°
Reaches altitude 10° 18:56:57 10° 71° (ENE) 2,968 5.3 -18.8°
Maximum altitude 19:03:31 86° 343° (NNW) 1,113 3.3 -19.3°
Drops below altitude 10° 19:10:06 10° 256° (WSW) 2,965 5.8 -19.9°
Sets 19:12:34 0° 256° (WSW) 3,922 6.4 -20.1°
